User: anonymous   Login
Location: Utrecht
(52.0907°N, 5.1214°E)
Time: 13:10:24
(UTC+02:00)
Language:

XW-2A - Orbit

View from above orbital plane
View from above orbital plane
View from above satellite
View from above satellite

Ground track
Ground track

The orbit data is extracted from the following two-line orbital elements,

1 40903U 15049E   22176.12204532  .00020899  00000-0  32576-3 0  9996
2 40903  97.1784 234.6658 0011447  95.0768 323.5120 15.53810524380450
Epoch (UTC): 25 June 2022 02:55:44
Eccentricity: 0.0011447
inclination: 97.1784°
perigee height: 398 km
apogee height: 413 km
right ascension of ascending node: 234.6658°
argument of perigee: 95.0768°
revolutions per day: 15.53810524
mean anomaly at epoch: 323.5120°
orbit number at epoch: 38045

The dashed part of the orbit path shows where the satellite is in the earth's shadow,  

DLR